Notices

What's New in latest Release from April 7th, 2021:

- Updated Glossary, including Speed of Maximum Gust, and Total Hourly Precipitation

- Updated national and regional climate services offices contacts and prices information

- Addition of station inventory lists for 1981-2010, 1971-2000, and 1961-1990 Normals.

If you haven't already, please take our survey and provide feedback about our website: https://eccc.sondage-survey.ca/f/LanguageSelection.aspx?s=442ca660-fcf1-47c0-95a9-59707d6fd709

Hourly Data Report for April 08, 2020

CLYDE RIVER A
NUNAVUT
Current Station Operator: NAVCAN

70°29'09.000" N
68°31'01.000" W
26.50 m
2400804
71090
YCY

Download Data

Hourly Data (April 2020)
Hourly Data Report for April 8, 2020
TIME
LST
Temp Definition
°C
Dew Point Definition
°C
Rel Hum Definition
%
Precip. Amount Definition
mm

Wind Dir Definition
10's deg

Wind Spd Definition
km/h
Visibility Definition
km
Stn Press Definition
kPa
Hmdx Definition


Wind Chill Definition


Weather Definition


00:00 -10.7 -19.6 49 0.0 30 17 16.1 101.92   -18 LegendNANA
01:00 -12.6 -20.0 55 0.0 32 26 16.1 101.93   -22 LegendNANA
02:00 -13.3 -19.9 58 0.0 31 26 16.1 101.97   -23 LegendNANA
03:00 -13.1 -20.2 56 0.0 26 9 16.1 102.02   -19 LegendNANA
04:00 -12.6 -21.0 50 0.0 28 11 16.1 102.07   -19 LegendNANA
05:00 -16.2 -21.2 66 0.0 32 13 16.1 102.13   -24 LegendNANA
06:00 -14.2 -21.0 57 0.0 27 5 16.1 102.18   -18 LegendNANA
07:00 -14.5 -19.7 65 0.0 24 11 16.1 102.19   -21 LegendNANA
08:00 -13.0 -18.8 63 0.0 25 8 16.1 102.19   -18 LegendNANA
09:00 -12.4 -17.1 68 0.0 33 8 16.1 102.20   -17 LegendNANA
10:00 -12.3 -16.9 69 0.0 25 9 16.1 102.20   -18 LegendNANA
11:00 -10.7 -16.0 65 0.0 23 8 16.1 102.21   -15 LegendNANA
12:00 -9.8 -15.4 64 0.0 25 8 16.1 102.23   -14 LegendNANA
13:00 -9.6 -15.0 65 0.0 LegendMM 4 16.1 102.26   -12 LegendNANA
14:00 -10.3 -14.2 73 0.0   0 16.1 102.28     LegendNANA
15:00 -10.7 -13.6 79 0.0   0 16.1 102.25     LegendNANA
16:00 -11.3 -13.3 85 0.0   0 16.1 102.24     LegendNANA
17:00 -11.5 -13.6 85 0.0 12 5 16.1 102.23   -15 LegendNANA
18:00 -12.1 -15.5 76 0.0 13 11 16.1 102.24   -18 LegendNANA
19:00 -13.7 -16.3 81 0.0 11 8 16.1 102.23   -19 LegendNANA
20:00 -16.1 -17.4 90 0.0 13 5 16.1 102.23   -20 LegendNANA
21:00 -16.1 -17.7 88 0.0 13 5 16.1 102.22   -20 LegendNANA
22:00 -18.7 -20.7 85 0.0 LegendMM 4 16.1 102.16   -22 LegendNANA
23:00 -16.9 -18.5 88 0.0   0 16.1 102.13     LegendNANA

Notes on Data Quality.

Legend

  • E = Estimated
  • M = Missing
  • NA = Not Available*
  • [empty] = Indicates an unobserved value
Date modified: